Regional Weather Roundup
Issued by NWS Charleston, WV

Home | Current Version | Previous Version | Graphics & Text | Print | Product List | Glossary On
Versions: 1 2 3 4 5 6 7 8 9 10 11 12 13 14 15 16 17 18 19 20 21 22 23 24 25 26 27 28 29 30 31 32 33 34 35 36 37 38 39 40 41 42 43 44 45 46 47 48 49 50
256
ASUS41 KRLX 232010
RWRRLX
West Virginia Regional Weather Roundup
National Weather Service Charleston WV
400 PM EDT WED AUG 23 2017

Note: "fair" indicates few or no clouds below 12,000 feet with no
significant weather and/or obstructions to visibility.

WVZ003-232100-
Northern Panhandle of West Virginia

CITY           SKY/WX    TMP DP  RH WIND       PRES   REMARKS
WHEELING       PTSUNNY   72  52  49 W6        29.97F
$$

WVZ009-232100-
Northwest West Virginia

CITY           SKY/WX    TMP DP  RH WIND       PRES   REMARKS
PARKERSBURG    MOSUNNY   77  53  43 W9        30.00F
$$

WVZ006-232100-
Western West Virginia

CITY           SKY/WX    TMP DP  RH WIND       PRES   REMARKS
HUNTINGTON     MOSUNNY   75  55  49 NW7       29.98F
$$

WVZ015-232100-
West Central West Virginia

CITY           SKY/WX    TMP DP  RH WIND       PRES   REMARKS
CHARLESTON     MOSUNNY   79  55  43 NW9       29.97F
$$

WVZ022-031-232100-
North Central West Virginia

CITY           SKY/WX    TMP DP  RH WIND       PRES   REMARKS
CLARKSBURG     SUNNY     79  56  45 NW9       29.95F
MORGANTOWN     MOSUNNY   76  55  48 NW6G16    29.96F
$$

WVZ025-035-042-045-232100-
Southern West Virginia

CITY           SKY/WX    TMP DP  RH WIND       PRES   REMARKS
BECKLEY        PTSUNNY   75  59  57 N9        30.01F
LOGAN            N/A     75  59  57 NW6G13    29.99F
BLUEFIELD      CLOUDY    75  56  51 N7        30.01F
LEWISBURG      MOSUNNY   76  56  48 NW7G16    29.98S
$$

WVZ047-232100-
Northern Mountains of West Virginia

CITY           SKY/WX    TMP DP  RH WIND       PRES   REMARKS
ELKINS         MOSUNNY   75  55  49 W10       29.98F
$$

WVZ052-232100-
Eastern Panhandle of West Virginia

CITY           SKY/WX    TMP DP  RH WIND       PRES   REMARKS
MARTINSBURG    MOSUNNY   83  59  44 N13G20    29.88F
PETERSBURG     SUNNY     84  60  44 W10       29.90F
$$




USA.gov is the U.S. government's official web portal to all federal, state and local government web resources and services.